Weather in Pogorelovka

Russia / Belgorod Oblast     50°48′13″N   37°09′36″E
temp.,
°C
wind,
m/s
gust,
m/s
humid.,
%
clouds,
%
prec.,
mm/h
press.,
hPa
HPBL,
m
23 april, fri
fri2300:00+11ssw3672100 0.0 1020114
03:00+10s3675100 0.0 1019129
06:00+8s368218 0.1 1020133
09:00+12ssw57695 0.1 1019541
12:00+15ssw685695 0.9 10181600
15:00+16ssw795466 2.0 10161780
18:00+14ssw61063100 0.9 1015771
21:00+10sw5127757 1.3 1014439
24 april, sat
sat2400:00+9sw61188100 0.5 1013713
03:00+7wnw5792100 4.5 1012702
06:00+4nw51095100 1.4 1013679
09:00+7w687239 1.9 10131141
12:00+9w8105484 0.8 10131933
15:00+8w101255100 1.3 10141854
18:00+6wnw9125617 0.4 10151784
21:00+4w612653 0.4 1017895
25 april, sun
sun2500:00+2wsw512715 0.0 1018517
03:00+1w511760 0.0 1019413
06:000wsw410835 0.0 1020310
09:00+5wsw57570 0.0 1020855
12:00+9wsw574028 0.0 10192169
15:00+10sw683690 0.0 10182335
18:00+10ssw695184 0.0 10161611
21:00+7sw367095 0.0 1016163
26 april, mon
mon2600:00+4nw4495100 0.8 1017537
03:00+2nnw1398100 3.7 1017157
06:00+2w239261 0.4 1017252
09:00+5wnw236977 0.4 1016902
12:00+7w3452100 0.1 10151809
15:00+8wsw3450100 0.1 10141636
18:00+8wsw465469 0.1 10131484
21:00+4wsw36735 0.3 1014126
27 april, tue
tue2700:00+3wsw37815 0.0 1014142
03:00+2sw49845 0.0 1014200
06:00+1w499315 0.0 1014356
09:00+5w4766100 0.0 1015863
12:00+8wsw5644100 0.1 10142207
15:00+9w5642100 0.1 10132127
18:00+7wnw465950 0.4 10141084
21:00+4wsw36735 0.5 1015129